Regional Weather Roundup
Issued by NWS

Home | Current Version | Previous Version | Graphics & Text | Print | Product List | Glossary On
Versions: 1 2 3 4 5 6 7 8 9 10 11 12 13 14 15 16 17 18 19 20 21 22 23 24 25 26 27 28 29 30 31 32 33 34 35 36 37 38 39 40 41 42 43 44 45 46 47 48 49 50
000
ASUS43 KBIS 240010
RWRND

NORTH DAKOTA REGIONAL WEATHER ROUNDUP
NATIONAL WEATHER SERVICE BISMARCK ND
700 PM CDT TUE AUG 23 2016

NOTE: "FAIR" INDICATES FEW OR NO CLOUDS BELOW 12,000 FEET WITH NO
SIGNIFICANT WEATHER AND/OR OBSTRUCTIONS TO VISIBILITY.


NDZ001>003-009>011-017-240100-
NORTHWEST NORTH DAKOTA

CITY           SKY/WX    TMP DP  RH WIND       PRES   REMARKS
WILLISTON      SUNNY     76  40  27 W24G40    29.86R
6HR MIN TEMP:  76; 6HR MAX TEMP:  81;

MINOT          SUNNY     79  41  25 W21       29.80R
MINOT AFB      SUNNY     78  42  27 NW16G23   29.79R
$$

NDZ018>021-031>035-040>046-240100-
SOUTHWEST NORTH DAKOTA

CITY           SKY/WX    TMP DP  RH WIND       PRES   REMARKS
BISMARCK       SUNNY     79  40  24 NW15      29.84R
6HR MIN TEMP:  79; 6HR MAX TEMP:  84;

DICKINSON      MOSUNNY   74  34  23 W15G29    29.90R
GARRISON         N/A     77  41  27 W18G30    29.83R
6HR MIN TEMP:  77; 6HR MAX TEMP:  82;

HETTINGER ARPT SUNNY     78  33  19 NW18      29.94R
$$

NDZ004>008-012>016-024-026-027-054-240100-
NORTHEAST NORTH DAKOTA

CITY           SKY/WX    TMP DP  RH WIND       PRES   REMARKS
GRAND FORKS    PTSUNNY   82  69  64 SW9       29.66R
GRND FRKS AFB  CLOUDY    82  70  68 W8        29.68R
DEVILS LAKE    SUNNY     77  57  50 NW16      29.74R
$$

NDZ022-023-025-028>030-036>039-047>053-240100-
SOUTHEAST NORTH DAKOTA

CITY           SKY/WX    TMP DP  RH WIND       PRES   REMARKS
FARGO          MOSUNNY   85  61  44 S22G35    29.71R
6HR MIN TEMP:  83; 6HR MAX TEMP:  91;

JAMESTOWN      CLOUDY    74  62  66 NW6       29.76R
$$





USA.gov is the U.S. government's official web portal to all federal, state and local government web resources and services.